CW5467 Weather Reports


time (UTC)temp
C
wind
direction
speed
KPH
gust
KPH
rain 1hr
cm
rain 24hr
cm
rain mn
cm
humidity
%
barometer
mb
20260906130002 15 67 1.6 4.8 0.00 0.05 0.00 93 1021.3
20260906124959 15 67 0.0 0.0 0.00 0.05 0.00 93 1021.2
20260906124001 14 67 0.0 0.0 0.00 0.05 0.00 94 1021.2
20260906123001 13 67 0.0 0.0 0.00 0.05 0.00 94 1021.0
20260906122003 13 67 0.0 0.0 0.00 0.05 0.00 94 1020.9
20260906121000 13 67 0.0 0.0 0.00 0.05 0.00 94 1020.6
20260906120003 12 67 0.0 0.0 0.00 0.05 0.00 94 1020.4
20260906114959 12 67 0.0 0.0 0.00 0.05 0.00 94 1020.4
20260906113958 11 67 0.0 0.0 0.00 0.05 0.00 94 1020.4
20260906113000 11 67 0.0 0.0 0.00 0.05 0.00 94 1020.4
20260906111959 11 67 0.0 0.0 0.00 0.05 0.00 94 1020.3
20260906110958 11 67 0.0 0.0 0.00 0.05 0.00 94 1020.2
20260906110005 11 67 0.0 0.0 0.00 0.05 0.00 93 1020.1
20260906104958 11 67 0.0 0.0 0.00 0.05 0.00 93 1020.0
20260906104000 11 67 0.0 0.0 0.00 0.05 0.00 93 1020.2
20260906103000 11 67 0.0 0.0 0.00 0.05 0.00 93 1020.2
20260906101959 11 67 0.0 0.0 0.00 0.05 0.00 93 1020.0
20260906100959 11 67 0.0 0.0 0.00 0.05 0.00 93 1019.8
20260906094959 12 67 0.0 0.0 0.00 0.05 0.00 92 1019.9
20260906093003 12 67 0.0 0.0 0.00 0.05 0.00 92 1019.9
20260906092000 13 67 0.0 3.2 0.00 0.05 0.00 92 1019.8
20260906091002 13 67 3.2 6.4 0.00 0.05 0.00 92 1019.6
20260906090004 13 74 3.2 6.4 0.00 0.05 0.00 92 1019.5
20260906085001 13 85 3.2 4.8 0.00 0.05 0.00 92 1019.5
20260906084001 13 53 3.2 6.4 0.00 0.05 0.00 92 1019.6
20260906083001 13 65 3.2 6.4 0.00 0.05 0.00 92 1019.4
20260906082000 13 49 3.2 4.8 0.00 0.05 0.00 92 1019.4
20260906081001 13 73 1.6 4.8 0.00 0.05 0.00 92 1019.4
20260906075958 13 73 1.6 6.4 0.00 0.05 0.00 92 1019.4
20260906075002 13 62 1.6 8.0 0.00 0.05 0.00 92 1019.3
20260906074000 13 58 1.6 9.7 0.00 0.05 0.00 92 1019.1
20260906073000 13 63 1.6 4.8 0.00 0.05 0.00 92 1018.9
20260906072002 13 63 3.2 8.0 0.00 0.05 0.00 92 1019.0
20260906071001 13 53 1.6 4.8 0.00 0.05 0.00 92 1019.2
20260906070006 13 74 0.0 3.2 0.00 0.05 0.00 92 1019.2
20260906064001 14 74 0.0 3.2 0.00 0.05 0.00 91 1019.2
20260906062959 14 74 0.0 1.6 0.00 0.05 0.00 91 1019.2
20260906061958 15 74 0.0 4.8 0.00 0.05 0.00 91 1019.2
20260906060958 15 96 0.0 1.6 0.00 0.05 0.00 91 1019.2
20260906060002 15 96 0.0 3.2 0.00 0.05 0.00 90 1019.1
20260906053000 15 83 3.2 9.7 0.00 0.05 0.00 89 1018.8
20260906051959 16 63 4.8 9.7 0.00 0.05 0.00 88 1018.8
20260906050959 16 83 3.2 9.7 0.00 0.05 0.00 87 1018.9
20260906050003 16 76 4.8 12.9 0.00 0.05 0.00 87 1018.9
20260906045000 16 77 6.4 9.7 0.00 0.05 0.00 86 1018.7
20260906044002 17 88 9.7 16.1 0.00 0.05 0.00 86 1018.5
20260906043002 17 67 6.4 11.3 0.00 0.05 0.00 87 1018.6
20260906041001 17 78 6.4 14.5 0.00 0.05 0.00 87 1018.2
20260906040007 17 65 8.0 14.5 0.00 0.05 0.00 87 1018.2
20260906034003 18 92 9.7 16.1 0.00 0.05 0.05 89 1018.1
20260906032002 18 97 6.4 14.5 0.00 0.05 0.05 89 1018.2
20260906031000 18 69 6.4 12.9 0.00 0.05 0.05 90 1018.0
20260906025958 18 68 4.8 11.3 0.00 0.05 0.05 90 1017.9
20260906025002 18 71 3.2 9.7 0.00 0.05 0.05 89 1017.9
20260906022001 19 92 6.4 12.9 0.00 0.05 0.05 90 1017.5
20260906020958 18 63 6.4 9.7 0.00 0.05 0.05 91 1017.5
20260906020004 18 65 4.8 9.7 0.00 0.05 0.05 91 1017.6
20260906013003 19 64 4.8 8.0 0.00 0.05 0.05 91 1017.4
20260906012000 20 67 3.2 6.4 0.00 0.05 0.05 91 1017.2
20260906011002 20 58 1.6 6.4 0.00 0.05 0.05 92 1017.1
20260906010004 20 61 4.8 6.4 0.00 0.05 0.05 92 1016.9
20260906005004 20 45 1.6 4.8 0.00 0.05 0.05 92 1016.7
20260906004001 20 46 0.0 0.0 0.00 0.05 0.05 92 1016.6
20260906003002 20 46 0.0 0.0 0.00 0.05 0.05 92 1016.5
20260906002003 20 46 0.0 0.0 0.00 0.05 0.05 91 1016.6
20260906001000 20 46 0.0 0.0 0.00 0.05 0.05 91 1016.6
20260905235003 21 46 0.0 0.0 0.00 0.05 0.05 89 1016.4
20260905233004 22 46 0.0 0.0 0.00 0.05 0.05 90 1016.5
20260905232003 22 46 1.6 6.4 0.00 0.05 0.05 89 1016.6
20260905230004 22 43 4.8 9.7 0.00 0.05 0.05 87 1016.5
20260905224001 22 47 6.4 16.1 0.00 0.05 0.05 87 1016.3
20260905223001 22 78 8.0 14.5 0.00 0.05 0.05 86 1016.3
20260905222003 23 58 8.0 14.5 0.00 0.05 0.05 87 1016.0
20260905220006 23 71 6.4 9.7 0.00 0.05 0.05 90 1016.0
20260905215003 23 80 4.8 11.3 0.00 0.05 0.05 92 1016.0
20260905214000 22 76 4.8 12.9 0.00 0.05 0.05 92 1016.0
20260905212003 22 62 4.8 9.7 0.05 0.05 0.05 93 1015.9
20260905210959 22 74 4.8 8.0 0.05 0.05 0.05 93 1015.8
20260905210004 21 64 4.8 8.0 0.05 0.05 0.05 93 1015.8
20260905204959 21 92 4.8 9.7 0.05 0.05 0.05 93 1015.9
20260905204001 21 82 6.4 12.9 0.05 0.05 0.05 92 1016.0
20260905202002 21 46 6.4 14.5 0.00 0.00 0.00 92 1016.2
20260905201002 21 60 6.4 17.7 0.00 0.00 0.00 92 1016.3
20260905200004 21 65 12.9 22.5 0.00 0.00 0.00 90 1016.2
20260905195004 22 60 11.3 24.1 0.00 0.00 0.00 90 1016.2
20260905194000 22 49 9.7 20.9 0.00 0.00 0.00 91 1016.2
20260905192002 21 63 11.3 19.3 0.00 0.00 0.00 91 1016.4
20260905191002 21 59 8.0 17.7 0.00 0.00 0.00 91 1016.5
20260905190006 21 68 12.9 20.9 0.00 0.00 0.00 91 1016.5
20260905184002 21 66 9.7 16.1 0.00 0.00 0.00 91 1016.5
20260905182958 21 52 9.7 17.7 0.00 0.00 0.00 91 1016.5
20260905182003 21 51 11.3 19.3 0.00 0.00 0.00 91 1016.4
20260905181002 21 44 11.3 16.1 0.00 0.00 0.00 91 1016.4
20260905180006 21 73 8.0 12.9 0.00 0.00 0.00 92 1016.6
20260905174959 21 55 9.7 14.5 0.00 0.00 0.00 92 1016.6
20260905174003 21 63 9.7 14.5 0.00 0.00 0.00 92 1016.5
20260905173000 21 53 9.7 14.5 0.00 0.00 0.00 92 1016.5
20260905172002 21 80 6.4 14.5 0.00 0.00 0.00 92 1016.6
20260905170959 21 62 9.7 16.1 0.00 0.00 0.00 92 1016.7
20260905170004 21 42 8.0 11.3 0.00 0.00 0.00 92 1016.6
20260905165000 21 69 6.4 14.5 0.00 0.08 0.00 92 1016.6
20260905164002 21 37 6.4 11.3 0.00 0.08 0.00 92 1016.6
20260905161958 21 81 3.2 9.7 0.00 0.08 0.00 93 1016.5
20260905154959 20 87 6.4 14.5 0.00 0.10 0.00 93 1016.4
20260905154000 20 88 8.0 12.9 0.00 0.10 0.00 94 1016.4
20260905153001 20 73 9.7 14.5 0.00 0.10 0.00 94 1016.5
20260905152001 20 75 6.4 11.3 0.00 0.10 0.00 94 1016.4
20260905151001 20 73 4.8 12.9 0.00 0.10 0.00 94 1016.3
20260905150004 20 50 6.4 14.5 0.00 0.10 0.00 94 1016.3
20260905145001 20 66 9.7 14.5 0.00 0.61 0.00 94 1016.1
20260905144002 20 78 9.7 16.1 0.00 0.61 0.00 94 1016.0
20260905141959 20 60 6.4 14.5 0.00 0.61 0.00 94 1015.9
20260905141002 20 52 6.4 16.1 0.00 0.61 0.00 94 1015.8
20260905134002 20 78 8.0 14.5 0.00 1.52 0.00 94 1015.7
20260905133003 20 69 8.0 14.5 0.00 1.52 0.00 94 1015.7
20260905132001 20 49 9.7 14.5 0.00 1.52 0.00 94 1015.6